User: anonymous   Login
Location: ??
(35.5052°N, 139.7262°E)
Time: 06:25:39
(UTC+00:00)
Language:

Envisat - Orbit

View from above orbital plane
View from above orbital plane
View from above satellite
View from above satellite

Ground track
Ground track

The orbit data is extracted from the following two-line orbital elements,

1 27386U 02009A   21296.70425356  .00000038  00000-0  25885-4 0  9992
2 27386  98.1604 284.2782 0001247  90.9413  82.1815 14.38048933 29435
Epoch (UTC): 23 October 2021 16:54:07
Eccentricity: 0.0001247
inclination: 98.1604°
perigee height: 764 km
apogee height: 766 km
right ascension of ascending node: 284.2782°
argument of perigee: 90.9413°
revolutions per day: 14.38048933
mean anomaly at epoch: 82.1815°
orbit number at epoch: 2943

The dashed part of the orbit path shows where the satellite is in the earth's shadow,  

DLR